contact:dominique.lefevre@mio.osupytheas.fr, maurice.libes@osupytheas.fr, didier.mallarino@osupytheas.fr
Project:EMSO http://www.emso-fr.org/EMSO-France
Depth: 2436.0 m
Title:EMSO Ligure Ouest : Data MII capteur MICROCAT
DateTime_Computer,Latitude,Longitude,Temperature,Conductivity,Pressure,DateTime_Instrument
DateTime_Computer,Latitude,Longitude,degC,S m-1,dbar,DateTime_Instrument
2023-05-29T00:02:34Z,42.805,6.029,13.3041,4.60124,2470.717,2023-5-29T02:04:47Z
2023-05-29T00:05:37Z,42.805,6.029,13.3035,4.60126,2470.693,2023-5-29T02:07:50Z
2023-05-29T00:08:40Z,42.805,6.029,13.3036,4.60125,2470.717,2023-5-29T02:10:53Z
2023-05-29T00:11:43Z,42.805,6.029,13.3036,4.60132,2470.707,2023-5-29T02:13:56Z
2023-05-29T00:14:47Z,42.805,6.029,13.3038,4.60121,2470.693,2023-5-29T02:16:59Z
2023-05-29T00:17:50Z,42.805,6.029,13.3031,4.60126,2470.73,2023-5-29T02:20:02Z
2023-05-29T00:20:53Z,42.805,6.029,13.3029,4.60110,2470.717,2023-5-29T02:23:05Z
2023-05-29T00:23:56Z,42.805,6.029,13.3042,4.60115,2470.717,2023-5-29T02:26:08Z
2023-05-29T00:26:59Z,42.805,6.029,13.3036,4.60117,2470.717,2023-5-29T02:29:12Z
2023-05-29T00:30:02Z,42.805,6.029,13.3031,4.60122,2470.717,2023-5-29T02:32:15Z
2023-05-29T00:33:05Z,42.805,6.029,13.3041,4.60125,2470.693,2023-5-29T02:35:18Z
2023-05-29T00:36:08Z,42.805,6.029,13.3034,4.60120,2470.707,2023-5-29T02:38:21Z
2023-05-29T00:39:11Z,42.805,6.029,13.3040,4.60114,2470.693,2023-5-29T02:41:24Z
2023-05-29T00:42:14Z,42.805,6.029,13.3029,4.60122,2470.74,2023-5-29T02:44:27Z
2023-05-29T00:45:17Z,42.805,6.029,13.3034,4.60116,2470.717,2023-5-29T02:47:30Z
2023-05-29T00:48:20Z,42.805,6.029,13.3036,4.60122,2470.754,2023-5-29T02:50:33Z
2023-05-29T00:51:24Z,42.805,6.029,13.3031,4.60122,2470.717,2023-5-29T02:53:36Z
2023-05-29T00:54:27Z,42.805,6.029,13.3052,4.60126,2470.73,2023-5-29T02:56:39Z
2023-05-29T00:57:30Z,42.805,6.029,13.3034,4.60127,2470.763,2023-5-29T02:59:42Z
2023-05-29T01:00:33Z,42.805,6.029,13.3040,4.60126,2470.74,2023-5-29T03:02:45Z
2023-05-29T01:03:36Z,42.805,6.029,13.3039,4.60129,2470.717,2023-5-29T03:05:49Z
2023-05-29T01:06:39Z,42.805,6.029,13.3041,4.60135,2470.707,2023-5-29T03:08:52Z
2023-05-29T01:09:42Z,42.805,6.029,13.3043,4.60122,2470.73,2023-5-29T03:11:55Z
2023-05-29T01:12:45Z,42.805,6.029,13.3031,4.60119,2470.717,2023-5-29T03:14:58Z
2023-05-29T01:15:48Z,42.805,6.029,13.3043,4.60137,2470.693,2023-5-29T03:18:01Z
2023-05-29T01:18:51Z,42.805,6.029,13.3031,4.60122,2470.717,2023-5-29T03:21:04Z
2023-05-29T01:21:54Z,42.805,6.029,13.3040,4.60119,2470.73,2023-5-29T03:24:07Z
2023-05-29T01:24:57Z,42.805,6.029,13.3042,4.60125,2470.693,2023-5-29T03:27:10Z
2023-05-29T01:28:01Z,42.805,6.029,13.3042,4.60133,2470.73,2023-5-29T03:30:13Z
2023-05-29T01:31:04Z,42.805,6.029,13.3043,4.60125,2470.717,2023-5-29T03:33:16Z
2023-05-29T01:34:07Z,42.805,6.029,13.3032,4.60110,2470.693,2023-5-29T03:36:19Z
2023-05-29T01:37:10Z,42.805,6.029,13.3035,4.60119,2470.74,2023-5-29T03:39:22Z
2023-05-29T01:40:13Z,42.805,6.029,13.3035,4.60122,2470.726,2023-5-29T03:42:25Z
2023-05-29T01:43:16Z,42.805,6.029,13.3041,4.60127,2470.763,2023-5-29T03:45:29Z
2023-05-29T01:46:19Z,42.805,6.029,13.3036,4.60119,2470.754,2023-5-29T03:48:32Z
2023-05-29T01:49:22Z,42.805,6.029,13.3033,4.60113,2470.74,2023-5-29T03:51:35Z
2023-05-29T01:52:25Z,42.805,6.029,13.3036,4.60129,2470.74,2023-5-29T03:54:38Z
2023-05-29T01:55:28Z,42.805,6.029,13.3040,4.60123,2470.717,2023-5-29T03:57:41Z
2023-05-29T01:58:31Z,42.805,6.029,13.3042,4.60116,2470.763,2023-5-29T04:00:44Z
2023-05-29T02:01:34Z,42.805,6.029,13.3039,4.60115,2470.73,2023-5-29T04:03:47Z
2023-05-29T02:04:37Z,42.805,6.029,13.3035,4.60114,2470.763,2023-5-29T04:06:50Z
2023-05-29T02:07:41Z,42.805,6.029,13.3045,4.60123,2470.754,2023-5-29T04:09:53Z
2023-05-29T02:10:44Z,42.805,6.029,13.3033,4.60125,2470.693,2023-5-29T04:12:56Z
2023-05-29T02:13:47Z,42.805,6.029,13.3040,4.60133,2470.73,2023-5-29T04:15:59Z
2023-05-29T02:16:50Z,42.805,6.029,13.3040,4.60140,2470.754,2023-5-29T04:19:02Z
2023-05-29T02:19:53Z,42.805,6.029,13.3032,4.60135,2470.717,2023-5-29T04:22:06Z
2023-05-29T02:22:56Z,42.805,6.029,13.3051,4.60129,2470.717,2023-5-29T04:25:09Z
2023-05-29T02:25:59Z,42.805,6.029,13.3043,4.60125,2470.73,2023-5-29T04:28:12Z
2023-05-29T02:29:02Z,42.805,6.029,13.3034,4.60127,2470.74,2023-5-29T04:31:15Z
2023-05-29T02:32:05Z,42.805,6.029,13.3039,4.60117,2470.763,2023-5-29T04:34:18Z
2023-05-29T02:35:08Z,42.805,6.029,13.3039,4.60129,2470.74,2023-5-29T04:37:21Z
2023-05-29T02:38:11Z,42.805,6.029,13.3033,4.60133,2470.717,2023-5-29T04:40:24Z
2023-05-29T02:41:14Z,42.805,6.029,13.3041,4.60127,2470.74,2023-5-29T04:43:27Z
2023-05-29T02:44:18Z,42.805,6.029,13.3045,4.60140,2470.74,2023-5-29T04:46:30Z
2023-05-29T02:47:21Z,42.805,6.029,13.3043,4.60134,2470.73,2023-5-29T04:49:33Z
2023-05-29T02:50:24Z,42.805,6.029,13.3040,4.60116,2470.73,2023-5-29T04:52:36Z
2023-05-29T02:53:27Z,42.805,6.029,13.3034,4.60112,2470.74,2023-5-29T04:55:39Z
2023-05-29T02:56:30Z,42.805,6.029,13.3042,4.60113,2470.717,2023-5-29T04:58:43Z
2023-05-29T02:59:33Z,42.805,6.029,13.3042,4.60109,2470.717,2023-5-29T05:01:46Z
2023-05-29T03:02:36Z,42.805,6.029,13.3035,4.60120,2470.717,2023-5-29T05:04:49Z
2023-05-29T03:05:39Z,42.805,6.029,13.3034,4.60129,2470.74,2023-5-29T05:07:52Z
2023-05-29T03:08:42Z,42.805,6.029,13.3041,4.60112,2470.717,2023-5-29T05:10:55Z
2023-05-29T03:11:45Z,42.805,6.029,13.3031,4.60124,2470.777,2023-5-29T05:13:58Z
2023-05-29T03:14:48Z,42.805,6.029,13.3044,4.60122,2470.693,2023-5-29T05:17:01Z
2023-05-29T03:17:51Z,42.805,6.029,13.3042,4.60130,2470.717,2023-5-29T05:20:04Z
2023-05-29T03:20:54Z,42.805,6.029,13.3039,4.60131,2470.717,2023-5-29T05:23:07Z
2023-05-29T03:23:58Z,42.805,6.029,13.3037,4.60119,2470.717,2023-5-29T05:26:10Z
2023-05-29T03:27:01Z,42.805,6.029,13.3035,4.60117,2470.74,2023-5-29T05:29:13Z
2023-05-29T03:30:04Z,42.805,6.029,13.3035,4.60122,2470.74,2023-5-29T05:32:16Z
2023-05-29T03:33:07Z,42.805,6.029,13.3031,4.60104,2470.693,2023-5-29T05:35:19Z
2023-05-29T03:36:10Z,42.805,6.029,13.3032,4.60100,2470.74,2023-5-29T05:38:23Z
2023-05-29T03:39:13Z,42.805,6.029,13.3035,4.60125,2470.74,2023-5-29T05:41:26Z
2023-05-29T03:42:16Z,42.805,6.029,13.3044,4.60112,2470.74,2023-5-29T05:44:29Z
2023-05-29T03:45:19Z,42.805,6.029,13.3039,4.60127,2470.717,2023-5-29T05:47:32Z
2023-05-29T03:48:22Z,42.805,6.029,13.3044,4.60131,2470.74,2023-5-29T05:50:35Z
2023-05-29T03:51:25Z,42.805,6.029,13.3035,4.60133,2470.74,2023-5-29T05:53:38Z
2023-05-29T03:54:28Z,42.805,6.029,13.3036,4.60130,2470.717,2023-5-29T05:56:41Z
2023-05-29T03:57:32Z,42.805,6.029,13.3040,4.60130,2470.754,2023-5-29T05:59:44Z
2023-05-29T04:00:35Z,42.805,6.029,13.3043,4.60126,2470.693,2023-5-29T06:02:47Z
2023-05-29T04:03:38Z,42.805,6.029,13.3032,4.60119,2470.73,2023-5-29T06:05:50Z
2023-05-29T04:06:41Z,42.805,6.029,13.3037,4.60120,2470.693,2023-5-29T06:08:53Z
2023-05-29T04:09:44Z,42.805,6.029,13.3051,4.60135,2470.717,2023-5-29T06:11:56Z
2023-05-29T04:12:47Z,42.805,6.029,13.3034,4.60130,2470.73,2023-5-29T06:15:00Z
2023-05-29T04:15:50Z,42.805,6.029,13.3037,4.60135,2470.717,2023-5-29T06:18:03Z
2023-05-29T04:18:53Z,42.805,6.029,13.3035,4.60141,2470.717,2023-5-29T06:21:06Z
2023-05-29T04:21:56Z,42.805,6.029,13.3051,4.60140,2470.717,2023-5-29T06:24:09Z
2023-05-29T04:24:59Z,42.805,6.029,13.3038,4.60147,2470.707,2023-5-29T06:27:12Z
2023-05-29T04:28:02Z,42.805,6.029,13.3038,4.60122,2470.73,2023-5-29T06:30:15Z
2023-05-29T04:31:05Z,42.805,6.029,13.3050,4.60112,2470.717,2023-5-29T06:33:18Z
2023-05-29T04:34:08Z,42.805,6.029,13.3039,4.60117,2470.717,2023-5-29T06:36:21Z
2023-05-29T04:37:12Z,42.805,6.029,13.3041,4.60135,2470.73,2023-5-29T06:39:24Z
2023-05-29T04:40:15Z,42.805,6.029,13.3046,4.60117,2470.717,2023-5-29T06:42:27Z
2023-05-29T04:43:18Z,42.805,6.029,13.3039,4.60119,2470.73,2023-5-29T06:45:30Z
2023-05-29T04:46:21Z,42.805,6.029,13.3039,4.60125,2470.73,2023-5-29T06:48:33Z
2023-05-29T04:49:24Z,42.805,6.029,13.3045,4.60129,2470.707,2023-5-29T06:51:37Z
2023-05-29T04:52:27Z,42.805,6.029,13.3038,4.60127,2470.73,2023-5-29T06:54:40Z
2023-05-29T04:55:30Z,42.805,6.029,13.3034,4.60107,2470.74,2023-5-29T06:57:43Z
2023-05-29T04:58:33Z,42.805,6.029,13.3029,4.60119,2470.684,2023-5-29T07:00:46Z
2023-05-29T05:01:36Z,42.805,6.029,13.3036,4.60142,2470.717,2023-5-29T07:03:49Z
2023-05-29T05:04:39Z,42.805,6.029,13.3036,4.60133,2470.717,2023-5-29T07:06:52Z
2023-05-29T05:07:42Z,42.805,6.029,13.3036,4.60140,2470.73,2023-5-29T07:09:55Z
2023-05-29T05:10:45Z,42.805,6.029,13.3039,4.60139,2470.73,2023-5-29T07:12:58Z
2023-05-29T05:13:49Z,42.805,6.029,13.3046,4.60129,2470.74,2023-5-29T07:16:01Z
2023-05-29T05:16:52Z,42.805,6.029,13.3048,4.60146,2470.717,2023-5-29T07:19:04Z
2023-05-29T05:19:55Z,42.805,6.029,13.3053,4.60152,2470.73,2023-5-29T07:22:07Z
2023-05-29T05:22:58Z,42.805,6.029,13.3061,4.60160,2470.656,2023-5-29T07:25:10Z
2023-05-29T05:26:01Z,42.805,6.029,13.3046,4.60155,2470.73,2023-5-29T07:28:13Z
2023-05-29T05:29:04Z,42.805,6.029,13.3043,4.60152,2470.707,2023-5-29T07:31:17Z
2023-05-29T05:32:07Z,42.805,6.029,13.3041,4.60140,2470.73,2023-5-29T07:34:20Z
2023-05-29T05:35:10Z,42.805,6.029,13.3042,4.60160,2470.73,2023-5-29T07:37:23Z
2023-05-29T05:38:13Z,42.805,6.029,13.3036,4.60154,2470.717,2023-5-29T07:40:26Z
2023-05-29T05:41:16Z,42.805,6.029,13.3044,4.60146,2470.754,2023-5-29T07:43:29Z
2023-05-29T05:44:19Z,42.805,6.029,13.3048,4.60139,2470.707,2023-5-29T07:46:32Z
2023-05-29T05:47:22Z,42.805,6.029,13.3048,4.60157,2470.707,2023-5-29T07:49:35Z
2023-05-29T05:50:25Z,42.805,6.029,13.3046,4.60179,2470.693,2023-5-29T07:52:38Z
2023-05-29T05:53:29Z,42.805,6.029,13.3048,4.60179,2470.717,2023-5-29T07:55:41Z
2023-05-29T05:56:32Z,42.805,6.029,13.3041,4.60154,2470.707,2023-5-29T07:58:44Z
2023-05-29T05:59:35Z,42.805,6.029,13.3044,4.60150,2470.67,2023-5-29T08:01:47Z
2023-05-29T06:02:38Z,42.805,6.029,13.3054,4.60141,2470.693,2023-5-29T08:04:50Z
2023-05-29T06:05:41Z,42.805,6.029,13.3051,4.60148,2470.693,2023-5-29T08:07:54Z
2023-05-29T06:08:44Z,42.805,6.029,13.3067,4.60148,2470.693,2023-5-29T08:10:57Z
2023-05-29T06:11:47Z,42.805,6.029,13.3038,4.60140,2470.707,2023-5-29T08:14:00Z
2023-05-29T06:14:50Z,42.805,6.029,13.3059,4.60152,2470.693,2023-5-29T08:17:03Z
2023-05-29T06:17:53Z,42.805,6.029,13.3039,4.60197,2470.67,2023-5-29T08:20:06Z
2023-05-29T06:20:56Z,42.805,6.029,13.3055,4.60189,2470.693,2023-5-29T08:23:09Z
2023-05-29T06:23:59Z,42.805,6.029,13.3048,4.60134,2470.67,2023-5-29T08:26:12Z
2023-05-29T06:27:02Z,42.805,6.029,13.3045,4.60147,2470.684,2023-5-29T08:29:15Z
2023-05-29T06:30:08Z,42.805,6.029,13.3048,4.60155,2470.707,2023-5-29T08:32:18Z
2023-05-29T06:33:07Z,42.805,6.029,13.3036,4.60131,2470.693,2023-5-29T08:35:20Z
2023-05-29T06:36:10Z,42.805,6.029,13.3055,4.60154,2470.73,2023-5-29T08:38:23Z
2023-05-29T06:39:13Z,42.805,6.029,13.3068,4.60169,2470.684,2023-5-29T08:41:26Z
2023-05-29T06:42:16Z,42.805,6.029,13.3046,4.60157,2470.717,2023-5-29T08:44:29Z
2023-05-29T06:45:19Z,42.805,6.029,13.3054,4.60179,2470.67,2023-5-29T08:47:32Z
2023-05-29T06:48:23Z,42.805,6.029,13.3054,4.60158,2470.67,2023-5-29T08:50:35Z
2023-05-29T06:51:26Z,42.805,6.029,13.3067,4.60155,2470.684,2023-5-29T08:53:38Z
2023-05-29T06:54:29Z,42.805,6.029,13.3075,4.60125,2470.693,2023-5-29T08:56:41Z
2023-05-29T06:57:32Z,42.805,6.029,13.3047,4.60103,2470.684,2023-5-29T08:59:44Z
2023-05-29T07:00:35Z,42.805,6.029,13.3035,4.60095,2470.73,2023-5-29T09:02:48Z
2023-05-29T07:03:38Z,42.805,6.029,13.3028,4.60086,2470.684,2023-5-29T09:05:51Z
2023-05-29T07:06:41Z,42.805,6.029,13.3025,4.60095,2470.684,2023-5-29T09:08:54Z
2023-05-29T07:09:44Z,42.805,6.029,13.3027,4.60087,2470.67,2023-5-29T09:11:57Z
2023-05-29T07:12:47Z,42.805,6.029,13.3031,4.60099,2470.707,2023-5-29T09:15:00Z
2023-05-29T07:15:50Z,42.805,6.029,13.3061,4.60114,2470.646,2023-5-29T09:18:03Z
2023-05-29T07:18:53Z,42.805,6.029,13.3025,4.60092,2470.67,2023-5-29T09:21:06Z
2023-05-29T07:21:56Z,42.805,6.029,13.3024,4.60084,2470.646,2023-5-29T09:24:09Z
2023-05-29T07:25:00Z,42.805,6.029,13.3038,4.60112,2470.646,2023-5-29T09:27:12Z
2023-05-29T07:28:03Z,42.805,6.029,13.3069,4.60114,2470.67,2023-5-29T09:30:15Z
2023-05-29T07:31:06Z,42.805,6.029,13.3028,4.60095,2470.624,2023-5-29T09:33:18Z
2023-05-29T07:34:09Z,42.805,6.029,13.3024,4.60084,2470.646,2023-5-29T09:36:21Z
2023-05-29T07:37:12Z,42.805,6.029,13.3023,4.60088,2470.646,2023-5-29T09:39:25Z
2023-05-29T07:40:15Z,42.805,6.029,13.3024,4.60084,2470.646,2023-5-29T09:42:28Z
2023-05-29T07:43:18Z,42.805,6.029,13.3023,4.60082,2470.646,2023-5-29T09:45:31Z
2023-05-29T07:46:21Z,42.805,6.029,13.3024,4.60081,2470.646,2023-5-29T09:48:34Z
2023-05-29T07:49:24Z,42.805,6.029,13.3024,4.60081,2470.624,2023-5-29T09:51:37Z
2023-05-29T07:52:27Z,42.805,6.029,13.3023,4.60080,2470.624,2023-5-29T09:54:40Z
2023-05-29T07:55:30Z,42.805,6.029,13.3020,4.60079,2470.661,2023-5-29T09:57:43Z
2023-05-29T07:58:33Z,42.805,6.029,13.3026,4.60079,2470.624,2023-5-29T10:00:46Z
2023-05-29T08:01:36Z,42.805,6.029,13.3026,4.60081,2470.624,2023-5-29T10:03:49Z
2023-05-29T08:04:40Z,42.805,6.029,13.3023,4.60080,2470.624,2023-5-29T10:06:52Z
2023-05-29T08:07:43Z,42.805,6.029,13.3026,4.60081,2470.624,2023-5-29T10:09:55Z
2023-05-29T08:10:46Z,42.805,6.029,13.3021,4.60081,2470.614,2023-5-29T10:12:58Z
2023-05-29T08:13:49Z,42.805,6.029,13.3024,4.60079,2470.624,2023-5-29T10:16:01Z
2023-05-29T08:16:52Z,42.805,6.029,13.3021,4.60080,2470.661,2023-5-29T10:19:05Z
2023-05-29T08:19:55Z,42.805,6.029,13.3029,4.60081,2470.646,2023-5-29T10:22:08Z
2023-05-29T08:22:58Z,42.805,6.029,13.3023,4.60081,2470.624,2023-5-29T10:25:11Z
2023-05-29T08:26:01Z,42.805,6.029,13.3024,4.60082,2470.624,2023-5-29T10:28:14Z
2023-05-29T08:29:04Z,42.805,6.029,13.3021,4.60080,2470.661,2023-5-29T10:31:17Z
2023-05-29T08:32:06Z,42.805,6.029,13.3024,4.60080,2470.661,2023-5-29T10:34:18Z
2023-05-29T08:35:09Z,42.805,6.029,13.3023,4.60081,2470.637,2023-5-29T10:37:22Z
2023-05-29T08:38:12Z,42.805,6.029,13.3024,4.60079,2470.6,2023-5-29T10:40:25Z
2023-05-29T08:41:15Z,42.805,6.029,13.3021,4.60079,2470.661,2023-5-29T10:43:28Z
2023-05-29T08:44:18Z,42.805,6.029,13.3024,4.60079,2470.614,2023-5-29T10:46:31Z
2023-05-29T08:47:21Z,42.805,6.029,13.3026,4.60083,2470.624,2023-5-29T10:49:34Z
2023-05-29T08:50:24Z,42.805,6.029,13.3025,4.60080,2470.624,2023-5-29T10:52:37Z
2023-05-29T08:53:27Z,42.805,6.029,13.3026,4.60081,2470.637,2023-5-29T10:55:40Z
2023-05-29T08:56:30Z,42.805,6.029,13.3024,4.60079,2470.624,2023-5-29T10:58:43Z
2023-05-29T08:59:34Z,42.805,6.029,13.3021,4.60079,2470.614,2023-5-29T11:01:46Z
2023-05-29T09:02:37Z,42.805,6.029,13.3024,4.60080,2470.6,2023-5-29T11:04:49Z
2023-05-29T09:05:40Z,42.805,6.029,13.3022,4.60086,2470.591,2023-5-29T11:07:52Z
2023-05-29T09:08:43Z,42.805,6.029,13.3023,4.60081,2470.614,2023-5-29T11:10:56Z
2023-05-29T09:11:46Z,42.805,6.029,13.3024,4.60080,2470.577,2023-5-29T11:13:59Z
2023-05-29T09:14:49Z,42.805,6.029,13.3021,4.60082,2470.6,2023-5-29T11:17:02Z
2023-05-29T09:17:52Z,42.805,6.029,13.3024,4.60079,2470.6,2023-5-29T11:20:05Z
2023-05-29T09:20:55Z,42.805,6.029,13.3024,4.60080,2470.624,2023-5-29T11:23:08Z
2023-05-29T09:23:58Z,42.805,6.029,13.3024,4.60080,2470.6,2023-5-29T11:26:11Z
2023-05-29T09:27:01Z,42.805,6.029,13.3024,4.60081,2470.6,2023-5-29T11:29:14Z
2023-05-29T09:30:04Z,42.805,6.029,13.3026,4.60081,2470.614,2023-5-29T11:32:17Z
2023-05-29T09:33:08Z,42.805,6.029,13.3020,4.60078,2470.624,2023-5-29T11:35:20Z
2023-05-29T09:36:11Z,42.805,6.029,13.3024,4.60078,2470.6,2023-5-29T11:38:23Z
2023-05-29T09:39:14Z,42.805,6.029,13.3024,4.60079,2470.591,2023-5-29T11:41:26Z
2023-05-29T09:42:17Z,42.805,6.029,13.3021,4.60079,2470.6,2023-5-29T11:44:29Z
2023-05-29T09:45:20Z,42.805,6.029,13.3021,4.60079,2470.577,2023-5-29T11:47:33Z
2023-05-29T09:48:23Z,42.805,6.029,13.3024,4.60079,2470.6,2023-5-29T11:50:36Z
2023-05-29T09:51:26Z,42.805,6.029,13.3023,4.60079,2470.614,2023-5-29T11:53:39Z
2023-05-29T09:54:29Z,42.805,6.029,13.3026,4.60079,2470.61,2023-5-29T11:56:42Z
2023-05-29T09:57:32Z,42.805,6.029,13.3028,4.60081,2470.614,2023-5-29T11:59:45Z
2023-05-29T10:00:35Z,42.805,6.029,13.3025,4.60079,2470.6,2023-5-29T12:02:48Z
2023-05-29T10:03:38Z,42.805,6.029,13.3021,4.60079,2470.624,2023-5-29T12:05:51Z
2023-05-29T10:06:41Z,42.805,6.029,13.3026,4.60079,2470.637,2023-5-29T12:08:54Z
2023-05-29T10:09:45Z,42.805,6.029,13.3027,4.60079,2470.624,2023-5-29T12:11:57Z
2023-05-29T10:12:48Z,42.805,6.029,13.3024,4.60081,2470.624,2023-5-29T12:15:00Z
2023-05-29T10:15:51Z,42.805,6.029,13.3025,4.60079,2470.577,2023-5-29T12:18:03Z
2023-05-29T10:18:54Z,42.805,6.029,13.3019,4.60079,2470.624,2023-5-29T12:21:07Z
2023-05-29T10:21:57Z,42.805,6.029,13.3023,4.60079,2470.6,2023-5-29T12:24:10Z
2023-05-29T10:25:00Z,42.805,6.029,13.3021,4.60079,2470.624,2023-5-29T12:27:13Z
2023-05-29T10:28:03Z,42.805,6.029,13.3022,4.60078,2470.577,2023-5-29T12:30:16Z
2023-05-29T10:31:06Z,42.805,6.029,13.3022,4.60081,2470.624,2023-5-29T12:33:19Z
2023-05-29T10:34:09Z,42.805,6.029,13.3024,4.60079,2470.6,2023-5-29T12:36:22Z
2023-05-29T10:37:12Z,42.805,6.029,13.3021,4.60079,2470.637,2023-5-29T12:39:25Z
2023-05-29T10:40:15Z,42.805,6.029,13.3021,4.60078,2470.6,2023-5-29T12:42:28Z
2023-05-29T10:43:19Z,42.805,6.029,13.3024,4.60080,2470.646,2023-5-29T12:45:31Z
2023-05-29T10:46:22Z,42.805,6.029,13.3020,4.60079,2470.591,2023-5-29T12:48:34Z
2023-05-29T10:49:25Z,42.805,6.029,13.3019,4.60079,2470.637,2023-5-29T12:51:37Z
2023-05-29T10:52:28Z,42.805,6.029,13.3019,4.60079,2470.614,2023-5-29T12:54:40Z
2023-05-29T10:55:31Z,42.805,6.029,13.3021,4.60078,2470.637,2023-5-29T12:57:44Z
2023-05-29T10:58:34Z,42.805,6.029,13.3024,4.60079,2470.614,2023-5-29T13:00:47Z
2023-05-29T11:01:37Z,42.805,6.029,13.3025,4.60079,2470.624,2023-5-29T13:03:50Z
2023-05-29T11:04:40Z,42.805,6.029,13.3021,4.60081,2470.577,2023-5-29T13:06:53Z
2023-05-29T11:07:43Z,42.805,6.029,13.3022,4.60078,2470.624,2023-5-29T13:09:56Z
2023-05-29T11:10:46Z,42.805,6.029,13.3020,4.60078,2470.6,2023-5-29T13:12:59Z
2023-05-29T11:13:49Z,42.805,6.029,13.3024,4.60078,2470.6,2023-5-29T13:16:02Z
2023-05-29T11:16:52Z,42.805,6.029,13.3023,4.60081,2470.637,2023-5-29T13:19:05Z
2023-05-29T11:19:56Z,42.805,6.029,13.3021,4.60079,2470.6,2023-5-29T13:22:08Z
2023-05-29T11:22:59Z,42.805,6.029,13.3026,4.60078,2470.6,2023-5-29T13:25:11Z
2023-05-29T11:26:02Z,42.805,6.029,13.3024,4.60078,2470.646,2023-5-29T13:28:14Z
2023-05-29T11:29:05Z,42.805,6.029,13.3025,4.60079,2470.624,2023-5-29T13:31:17Z
2023-05-29T11:32:08Z,42.805,6.029,13.3024,4.60078,2470.577,2023-5-29T13:34:21Z
2023-05-29T11:35:11Z,42.805,6.029,13.3022,4.60077,2470.624,2023-5-29T13:37:24Z
2023-05-29T11:38:14Z,42.805,6.029,13.3021,4.60078,2470.637,2023-5-29T13:40:27Z
2023-05-29T11:41:17Z,42.805,6.029,13.3022,4.60079,2470.577,2023-5-29T13:43:30Z
2023-05-29T11:44:20Z,42.805,6.029,13.3022,4.60079,2470.646,2023-5-29T13:46:33Z
2023-05-29T11:47:23Z,42.805,6.029,13.3027,4.60079,2470.637,2023-5-29T13:49:36Z
2023-05-29T11:50:26Z,42.805,6.029,13.3021,4.60079,2470.637,2023-5-29T13:52:39Z
2023-05-29T11:53:30Z,42.805,6.029,13.3022,4.60079,2470.624,2023-5-29T13:55:42Z
2023-05-29T11:56:33Z,42.805,6.029,13.3019,4.60078,2470.624,2023-5-29T13:58:45Z
2023-05-29T11:59:36Z,42.805,6.029,13.3021,4.60078,2470.67,2023-5-29T14:01:48Z
2023-05-29T12:02:39Z,42.805,6.029,13.3025,4.60077,2470.646,2023-5-29T14:04:51Z
2023-05-29T12:05:42Z,42.805,6.029,13.3024,4.60077,2470.637,2023-5-29T14:07:55Z
2023-05-29T12:08:45Z,42.805,6.029,13.3024,4.60079,2470.661,2023-5-29T14:10:58Z
2023-05-29T12:11:48Z,42.805,6.029,13.3024,4.60078,2470.624,2023-5-29T14:14:01Z
2023-05-29T12:14:51Z,42.805,6.029,13.3024,4.60078,2470.661,2023-5-29T14:17:04Z
2023-05-29T12:17:54Z,42.805,6.029,13.3021,4.60078,2470.646,2023-5-29T14:20:07Z
2023-05-29T12:20:57Z,42.805,6.029,13.3024,4.60077,2470.684,2023-5-29T14:23:10Z
2023-05-29T12:24:00Z,42.805,6.029,13.3024,4.60078,2470.646,2023-5-29T14:26:13Z
2023-05-29T12:27:03Z,42.805,6.029,13.3026,4.60077,2470.661,2023-5-29T14:29:16Z
2023-05-29T12:30:07Z,42.805,6.029,13.3024,4.60077,2470.684,2023-5-29T14:32:20Z
2023-05-29T12:33:10Z,42.805,6.029,13.3023,4.60077,2470.661,2023-5-29T14:35:23Z
2023-05-29T12:36:13Z,42.805,6.029,13.3026,4.60079,2470.61,2023-5-29T14:38:26Z
2023-05-29T12:39:16Z,42.805,6.029,13.3019,4.60079,2470.67,2023-5-29T14:41:29Z
2023-05-29T12:42:19Z,42.805,6.029,13.3021,4.60079,2470.67,2023-5-29T14:44:32Z
2023-05-29T12:45:22Z,42.805,6.029,13.3024,4.60078,2470.661,2023-5-29T14:47:35Z
2023-05-29T12:48:26Z,42.805,6.029,13.3026,4.60078,2470.646,2023-5-29T14:50:38Z
2023-05-29T12:51:29Z,42.805,6.029,13.3022,4.60079,2470.646,2023-5-29T14:53:41Z
2023-05-29T12:54:32Z,42.805,6.029,13.3024,4.60079,2470.646,2023-5-29T14:56:44Z
2023-05-29T12:57:35Z,42.805,6.029,13.3025,4.60078,2470.661,2023-5-29T14:59:47Z
2023-05-29T13:00:38Z,42.805,6.029,13.3036,4.60085,2470.633,2023-5-29T15:02:51Z
2023-05-29T13:03:41Z,42.805,6.029,13.3021,4.60078,2470.661,2023-5-29T15:05:54Z
2023-05-29T13:06:44Z,42.805,6.029,13.3027,4.60079,2470.646,2023-5-29T15:08:57Z
2023-05-29T13:09:47Z,42.805,6.029,13.3029,4.60089,2470.646,2023-5-29T15:12:00Z
2023-05-29T13:12:50Z,42.805,6.029,13.3029,4.60091,2470.661,2023-5-29T15:15:03Z
2023-05-29T13:15:53Z,42.805,6.029,13.3026,4.60080,2470.637,2023-5-29T15:18:06Z
2023-05-29T13:18:56Z,42.805,6.029,13.3037,4.60089,2470.646,2023-5-29T15:21:09Z
2023-05-29T13:22:00Z,42.805,6.029,13.3029,4.60097,2470.661,2023-5-29T15:24:12Z
2023-05-29T13:25:03Z,42.805,6.029,13.3037,4.60096,2470.646,2023-5-29T15:27:15Z
2023-05-29T13:28:06Z,42.805,6.029,13.3035,4.60092,2470.67,2023-5-29T15:30:18Z
2023-05-29T13:31:09Z,42.805,6.029,13.3039,4.60096,2470.684,2023-5-29T15:33:21Z
2023-05-29T13:34:12Z,42.805,6.029,13.3041,4.60113,2470.684,2023-5-29T15:36:25Z
2023-05-29T13:37:15Z,42.805,6.029,13.3039,4.60090,2470.646,2023-5-29T15:39:28Z
2023-05-29T13:40:18Z,42.805,6.029,13.3040,4.60110,2470.646,2023-5-29T15:42:31Z
2023-05-29T13:43:21Z,42.805,6.029,13.3039,4.60092,2470.661,2023-5-29T15:45:34Z
2023-05-29T13:46:24Z,42.805,6.029,13.3039,4.60096,2470.661,2023-5-29T15:48:37Z
2023-05-29T13:49:27Z,42.805,6.029,13.3044,4.60115,2470.67,2023-5-29T15:51:40Z
2023-05-29T13:52:30Z,42.805,6.029,13.3036,4.60102,2470.646,2023-5-29T15:54:43Z
2023-05-29T13:55:34Z,42.805,6.029,13.3035,4.60112,2470.637,2023-5-29T15:57:46Z
2023-05-29T13:58:37Z,42.805,6.029,13.3033,4.60123,2470.67,2023-5-29T16:00:49Z
2023-05-29T14:01:40Z,42.805,6.029,13.3036,4.60121,2470.684,2023-5-29T16:03:52Z
2023-05-29T14:04:43Z,42.805,6.029,13.3039,4.60111,2470.67,2023-5-29T16:06:55Z
2023-05-29T14:07:46Z,42.805,6.029,13.3039,4.60115,2470.624,2023-5-29T16:09:59Z
2023-05-29T14:10:49Z,42.805,6.029,13.3036,4.60099,2470.707,2023-5-29T16:13:02Z
2023-05-29T14:13:52Z,42.805,6.029,13.3035,4.60101,2470.67,2023-5-29T16:16:05Z
2023-05-29T14:16:55Z,42.805,6.029,13.3041,4.60094,2470.646,2023-5-29T16:19:08Z
2023-05-29T14:19:58Z,42.805,6.029,13.3031,4.60104,2470.624,2023-5-29T16:22:11Z
2023-05-29T14:23:01Z,42.805,6.029,13.3034,4.60097,2470.684,2023-5-29T16:25:14Z
2023-05-29T14:26:04Z,42.805,6.029,13.3034,4.60103,2470.661,2023-5-29T16:28:17Z
2023-05-29T14:29:07Z,42.805,6.029,13.3037,4.60117,2470.67,2023-5-29T16:31:20Z
2023-05-29T14:32:11Z,42.805,6.029,13.3039,4.60122,2470.646,2023-5-29T16:34:24Z
2023-05-29T14:35:14Z,42.805,6.029,13.3037,4.60110,2470.661,2023-5-29T16:37:27Z
2023-05-29T14:38:17Z,42.805,6.029,13.3034,4.60125,2470.67,2023-5-29T16:40:30Z
2023-05-29T14:41:20Z,42.805,6.029,13.3039,4.60119,2470.67,2023-5-29T16:43:33Z
2023-05-29T14:44:23Z,42.805,6.029,13.3037,4.60099,2470.684,2023-5-29T16:46:36Z
2023-05-29T14:47:27Z,42.805,6.029,13.3031,4.60109,2470.67,2023-5-29T16:49:39Z
2023-05-29T14:50:30Z,42.805,6.029,13.3043,4.60117,2470.646,2023-5-29T16:52:42Z
2023-05-29T14:53:33Z,42.805,6.029,13.3041,4.60089,2470.693,2023-5-29T16:55:45Z
2023-05-29T14:56:36Z,42.805,6.029,13.3035,4.60105,2470.67,2023-5-29T16:58:48Z
2023-05-29T14:59:39Z,42.805,6.029,13.3039,4.60131,2470.707,2023-5-29T17:01:52Z
2023-05-29T15:02:42Z,42.805,6.029,13.3035,4.60104,2470.661,2023-5-29T17:04:55Z
2023-05-29T15:05:45Z,42.805,6.029,13.3056,4.60103,2470.646,2023-5-29T17:07:58Z
2023-05-29T15:08:48Z,42.805,6.029,13.3036,4.60119,2470.67,2023-5-29T17:11:01Z
2023-05-29T15:11:51Z,42.805,6.029,13.3037,4.60117,2470.646,2023-5-29T17:14:04Z
2023-05-29T15:14:54Z,42.805,6.029,13.3028,4.60103,2470.693,2023-5-29T17:17:07Z